2021-006EH (47616 NORAD) Tracking and Keplerian Element Data

This shows tracking and keplerian element data for the satellite.

Feedback or suggestion? Click here.




ElementValue
Catalog47616
Name2021-006EH
Epoch Orbit466
Epoch Day53.44939004
Epoch Year2021
RAAN116.632
Inclination97.5048
Eccentricity0.0011211
Argument of Perigee137.3125
Mean Anonmoly222.8979
Mean Motion15.12298927
Decay Rate2.121E-05
L11 47616U 21006EH 21053.44939004 .00002121 00000-0 12611-3 0 9997
L22 47616 97.5048 116.6320 0011211 137.3125 222.8979 15.12298927 4667

Live tracking and technical data element details for 2021-006EH (NORAD 47616). 2021-006EH can be tracked NOW for your location showing map with azimuth and elevation plus other details from your city location.

Track the satellite on the map from your city or location and see movement details for azimuth, elevation, latitude, longitude, range, height, and movement on the map or in text.







IsCatalogInMostPopularTable: catalog: 47616, numindb: 4
Update: records affected: 1



GetName: 47616 2021-006EH

Hit Count: updated at: Mon, 01 Mar 2021 16:03:33 GMT